Tracking 28081 objects as of 26-Sep-2023
HD Live streaming from Space Station
objects crossing your sky now

ION SCV-002

Track ION SCV-002 now!
10-day predictions


NORAD ID: 47504
Int'l Code: 2021-006CV
Perigee: 502.5 km
Apogee: 530.4 km
Inclination: 97.2 °
Period: 94.8 minutes
Semi major axis: 6887 km
RCS: Unknown
Launch date: January 24, 2021
Source: Italy (IT)
Launch site: AIR FORCE EASTERN TEST RANGE (AFETR)
Your satellite tracking list
Your tracking list is empty




NASA's NSSDC Master Catalog

Two Line Element Set (TLE):
1 47504U 21006CV  23268.80596548  .00008618  00000-0  41429-3 0  9991
2 47504  97.1518 295.2340 0020291  78.6283 281.7230 15.18852468147795
Source of the keplerian elements: AFSPC